Overview Statistics Trail Chart Weather Telemetry Raw packets
 

This is the latest recevied weather packets stored in our database for station/object K6GMW. If no packets are shown the sender has not sent any weather packets the latest 10 day(s).

<< 88 89 90 91 92 93 94 >>
Time Temp. Humidity Pressure Rain* Wind** Luminosity Snow
1787978018 24.44° C 68% 1017.9 hPa 0 mm - 0 W/m² -
1787977713 25° C 66% 1018 hPa 0 mm - 0 W/m² -
1787977409 25° C 66% 1017.9 hPa 0 mm - 0 W/m² -
1787977104 25° C 65% 1018 hPa 0 mm - 0 W/m² -
1787976800 25° C 65% 1018 hPa 0 mm - 0 W/m² -
1787976499 25° C 64% 1018 hPa 0 mm - 0 W/m² -
1787976195 25° C 66% 1017.9 hPa 0 mm - 0 W/m² -
1787975894 24.44° C 67% 1017.9 hPa 0 mm - 0 W/m² -
1787975593 25° C 67% 1017.9 hPa 0 mm - 0 W/m² -
1787975292 25° C 65% 1017.9 hPa 0 mm - 0 W/m² -
1787974991 25.56° C 63% 1017.8 hPa 0 mm - 0 W/m² -
1787974690 25.56° C 62% 1017.9 hPa 0 mm - 0 W/m² -
1787974385 25.56° C 61% 1017.4 hPa 0 mm - 0 W/m² -
1787974083 26.11° C 61% 1017.5 hPa 0 mm - 0 W/m² -
1787973779 26.11° C 61% 1017.4 hPa 0 mm - 0 W/m² -
1787973474 26.11° C 60% 1017.6 hPa 0 mm - 0 W/m² -
1787973169 26.67° C 59% 1017.5 hPa 0 mm - 0 W/m² -
1787972868 26.67° C 59% 1017.4 hPa 0 mm - 0 W/m² -
1787972563 26.67° C 59% 1017.4 hPa 0 mm - 0 W/m² -
1787972263 27.22° C 59% 1017.3 hPa 0 mm - 0 W/m² -
1787971963 27.22° C 58% 1017.4 hPa 0 mm - 0 W/m² -
1787971658 27.22° C 57% 1017.3 hPa 0 mm - 0 W/m² -
1787971355 27.22° C 59% 1017.2 hPa 0 mm - 0 W/m² -
1787971050 27.22° C 59% 1017.1 hPa 0 mm - 0 W/m² -
1787970749 27.78° C 56% 1017 hPa 0 mm - 0 W/m² -

* Rain latest hour (hover to see other rain measurements)
** Current wind speed in m/s (hover to see current wind gust speed)